Time,TemperatureF,DewpointF,PressureIn,WindDirection,WindDirectionDegrees,WindSpeedMPH,WindSpeedGustMPH,Humidity,HourlyPrecipIn,Conditions,Clouds,dailyrainin,SoftwareType,DateUTC
2013-05-12 00:00:00,78.1,64.0,30.40,WSW,248,0.0,0.0,62,0.00,RA,SCT,0.00,WeatherDisplay:10.37,2013-05-12 04:00:00,
2013-05-12 00:01:00,78.1,64.0,30.40,WSW,248,0.0,0.0,62,0.00,RA,SCT,0.00,WeatherDisplay:10.37,2013-05-12 04:01:00,
2013-05-12 00:06:00,78.1,64.0,30.40,WSW,248,0.0,0.0,62,0.00,RA,SCT,0.00,WeatherDisplay:10.37,2013-05-12 04:06:00,
2013-05-12 00:11:00,77.9,63.8,30.40,WSW,248,0.0,0.0,62,0.00,CLR,SCT,0.00,WeatherDisplay:10.37,2013-05-12 04:11:00,
2013-05-12 00:16:00,77.9,63.8,30.40,WSW,248,0.0,0.0,62,0.00,CLR,SCT,0.00,WeatherDisplay:10.37,2013-05-12 04:16:00,
2013-05-12 00:21:00,77.9,63.8,30.40,WSW,248,0.0,0.0,62,0.00,CLR,SCT,0.00,WeatherDisplay:10.37,2013-05-12 04:21:00,
2013-05-12 00:26:00,77.7,64.1,30.40,WSW,248,0.0,0.0,63,0.00,CLR,SCT,0.00,WeatherDisplay:10.37,2013-05-12 04:26:00,
2013-05-12 00:31:00,77.9,64.3,30.40,North,0,6.9,6.9,63,0.00,CLR,SCT,0.00,WeatherDisplay:10.37,2013-05-12 04:31:00,
2013-05-12 00:36:00,77.9,64.3,30.40,ESE,112,0.0,2.4,63,0.00,CLR,SCT,0.00,WeatherDisplay:10.37,2013-05-12 04:36:00,
2013-05-12 00:41:00,78.1,64.0,30.40,NE,45,1.2,1.2,62,0.00,CLR,SCT,0.00,WeatherDisplay:10.37,2013-05-12 04:41:00,
2013-05-12 00:46:00,77.9,64.3,30.40,ENE,68,0.0,0.3,63,0.00,CLR,SCT,0.00,WeatherDisplay:10.37,2013-05-12 04:46:00,
2013-05-12 00:51:00,78.1,64.5,30.40,WSW,248,0.0,0.2,63,0.00,CLR,SCT,0.00,WeatherDisplay:10.37,2013-05-12 04:51:00,
2013-05-12 00:56:00,77.9,64.3,30.40,NNE,22,0.0,0.1,63,0.00,CLR,SCT,0.00,WeatherDisplay:10.37,2013-05-12 04:56:00,
2013-05-12 01:01:00,77.9,64.3,30.40,NNW,338,0.0,0.2,63,0.00,CLR,SCT,0.00,WeatherDisplay:10.37,2013-05-12 05:01:00,
2013-05-12 01:06:00,77.9,64.3,30.40,NE,45,0.0,0.2,63,0.00,CLR,SCT,0.00,WeatherDisplay:10.37,2013-05-12 05:06:00,
2013-05-12 01:11:00,77.9,64.3,30.40,NE,45,0.0,0.0,63,0.00,CLR,SCT,0.00,WeatherDisplay:10.37,2013-05-12 05:11:00,
2013-05-12 01:16:00,77.7,64.1,30.40,NE,45,0.0,0.0,63,0.00,CLR,SCT,0.00,WeatherDisplay:10.37,2013-05-12 05:16:00,
2013-05-12 01:21:00,77.7,64.1,30.40,NNE,22,0.0,0.0,63,0.00,CLR,SCT,0.00,WeatherDisplay:10.37,2013-05-12 05:21:00,
2013-05-12 01:26:00,77.7,64.6,30.40,ENE,68,2.3,2.3,64,0.00,CLR,SCT,0.00,WeatherDisplay:10.37,2013-05-12 05:26:00,
2013-05-12 01:31:00,77.7,64.6,30.40,East,90,2.3,2.3,64,0.00,CLR,SCT,0.00,WeatherDisplay:10.37,2013-05-12 05:31:00,
2013-05-12 01:36:00,77.7,65.0,30.40,ENE,68,2.3,2.3,65,0.00,CLR,SCT,0.00,WeatherDisplay:10.37,2013-05-12 05:36:00,
2013-05-12 01:41:00,77.7,65.0,30.40,NNE,22,2.3,2.3,65,0.00,CLR,SCT,0.00,WeatherDisplay:10.37,2013-05-12 05:41:00,
2013-05-12 01:46:00,77.5,65.3,30.40,SE,135,1.2,1.2,66,0.00,CLR,SCT,0.00,WeatherDisplay:10.37,2013-05-12 05:46:00,
2013-05-12 01:51:00,77.7,65.5,30.40,NNE,22,0.0,0.3,66,0.00,CLR,SCT,0.00,WeatherDisplay:10.37,2013-05-12 05:51:00,
2013-05-12 01:56:00,77.7,65.5,30.40,NNE,22,0.0,0.0,66,0.00,CLR,SCT,0.00,WeatherDisplay:10.37,2013-05-12 05:56:00,
2013-05-12 02:02:00,77.9,65.6,30.40,ENE,68,0.0,0.0,66,0.00,CLR,SCT,0.00,WeatherDisplay:10.37,2013-05-12 06:02:00,
2013-05-12 02:07:00,77.9,65.6,30.40,East,90,0.0,0.0,66,0.00,CLR,SCT,0.00,WeatherDisplay:10.37,2013-05-12 06:07:00,
2013-05-12 02:12:00,77.7,65.5,30.40,ENE,68,0.0,0.0,66,0.00,CLR,SCT,0.00,WeatherDisplay:10.37,2013-05-12 06:12:00,
2013-05-12 02:17:00,77.7,65.5,30.40,East,90,1.2,1.2,66,0.00,CLR,SCT,0.00,WeatherDisplay:10.37,2013-05-12 06:17:00,
2013-05-12 02:22:00,77.7,65.0,30.40,ESE,112,0.0,0.1,65,0.00,CLR,SCT,0.00,WeatherDisplay:10.37,2013-05-12 06:22:00,
2013-05-12 02:27:00,77.5,65.3,30.40,NNE,22,0.0,0.1,66,0.00,CLR,SCT,0.00,WeatherDisplay:10.37,2013-05-12 06:27:00,
2013-05-12 02:32:00,77.5,65.3,30.40,ENE,68,0.0,0.0,66,0.00,CLR,SCT,0.00,WeatherDisplay:10.37,2013-05-12 06:32:00,
2013-05-12 02:37:00,77.5,65.7,30.40,ENE,68,0.0,0.0,67,0.00,CLR,SCT,0.00,WeatherDisplay:10.37,2013-05-12 06:37:00,
2013-05-12 02:42:00,77.5,65.7,30.40,SE,135,0.0,0.0,67,0.00,CLR,SCT,0.00,WeatherDisplay:10.37,2013-05-12 06:42:00,
2013-05-12 02:47:00,77.5,65.7,30.40,SE,135,0.0,0.0,67,0.00,CLR,SCT,0.00,WeatherDisplay:10.37,2013-05-12 06:47:00,
2013-05-12 02:52:00,77.5,65.7,30.40,SE,135,0.0,0.0,67,0.00,CLR,SCT,0.00,WeatherDisplay:10.37,2013-05-12 06:52:00,
2013-05-12 02:57:00,77.4,65.5,30.40,ESE,112,0.0,0.0,67,0.00,CLR,SCT,0.00,WeatherDisplay:10.37,2013-05-12 06:57:00,
2013-05-12 03:02:00,77.2,65.4,30.40,ENE,68,0.0,0.0,67,0.00,CLR,SCT,0.00,WeatherDisplay:10.37,2013-05-12 07:02:00,
2013-05-12 03:07:00,77.2,65.8,30.40,ENE,68,0.0,0.0,68,0.00,CLR,SCT,0.00,WeatherDisplay:10.37,2013-05-12 07:07:00,
2013-05-12 03:12:00,77.0,65.6,30.40,East,90,0.0,0.0,68,0.00,CLR,SCT,0.00,WeatherDisplay:10.37,2013-05-12 07:12:00,
2013-05-12 03:17:00,77.0,65.6,30.40,ESE,112,0.0,0.0,68,0.00,CLR,SCT,0.00,WeatherDisplay:10.37,2013-05-12 07:17:00,
2013-05-12 03:22:00,77.0,65.6,30.40,East,90,0.0,0.0,68,0.00,CLR,SCT,0.00,WeatherDisplay:10.37,2013-05-12 07:22:00,
2013-05-12 03:27:00,77.0,65.6,30.40,East,90,0.0,0.0,68,0.00,CLR,SCT,0.00,WeatherDisplay:10.37,2013-05-12 07:27:00,
2013-05-12 03:32:00,77.0,65.6,30.40,South,180,0.0,0.0,68,0.00,CLR,SCT,0.00,WeatherDisplay:10.37,2013-05-12 07:32:00,
2013-05-12 03:37:00,77.0,65.6,30.40,SE,135,0.0,0.0,68,0.00,CLR,SCT,0.00,WeatherDisplay:10.37,2013-05-12 07:37:00,
2013-05-12 03:42:00,77.0,65.6,30.40,South,180,0.0,0.0,68,0.00,CLR,SCT,0.00,WeatherDisplay:10.37,2013-05-12 07:42:00,
2013-05-12 03:47:00,77.0,66.0,30.40,ESE,112,1.2,1.2,69,0.00,CLR,SCT,0.00,WeatherDisplay:10.37,2013-05-12 07:47:00,
2013-05-12 03:52:00,77.0,66.0,30.40,SSE,158,0.0,0.1,69,0.00,CLR,SCT,0.00,WeatherDisplay:10.37,2013-05-12 07:52:00,
2013-05-12 03:57:00,76.8,65.9,30.40,SSE,158,0.0,0.0,69,0.00,CLR,SCT,0.00,WeatherDisplay:10.37,2013-05-12 07:57:00,
2013-05-12 04:02:00,76.8,65.9,30.40,SW,225,0.0,0.0,69,0.00,CLR,SCT,0.00,WeatherDisplay:10.37,2013-05-12 08:02:00,
2013-05-12 04:07:00,76.8,66.3,30.40,SW,225,0.0,0.0,70,0.00,CLR,SCT,0.00,WeatherDisplay:10.37,2013-05-12 08:07:00,
2013-05-12 04:12:00,76.8,66.3,30.40,South,180,0.0,0.0,70,0.00,CLR,SCT,0.00,WeatherDisplay:10.37,2013-05-12 08:12:00,
2013-05-12 04:17:00,76.8,66.3,30.40,SSW,202,1.2,0.0,70,0.00,CLR,SCT,0.00,WeatherDisplay:10.37,2013-05-12 08:17:00,
2013-05-12 04:22:00,76.8,66.3,30.40,SSW,202,0.0,0.0,70,0.00,CLR,SCT,0.00,WeatherDisplay:10.37,2013-05-12 08:22:00,
2013-05-12 04:27:00,76.5,65.9,30.40,SSW,202,0.0,0.0,70,0.00,CLR,SCT,0.00,WeatherDisplay:10.37,2013-05-12 08:27:00,
2013-05-12 04:32:00,76.5,65.9,30.40,NW,315,0.0,0.0,70,0.00,CLR,SCT,0.00,WeatherDisplay:10.37,2013-05-12 08:32:00,
2013-05-12 04:37:00,76.5,65.9,30.40,NW,315,0.0,0.0,70,0.00,CLR,SCT,0.00,WeatherDisplay:10.37,2013-05-12 08:37:00,
2013-05-12 04:42:00,76.3,65.8,30.40,NNW,338,0.0,0.0,70,0.00,CLR,SCT,0.00,WeatherDisplay:10.37,2013-05-12 08:42:00,
2013-05-12 04:47:00,76.5,65.9,30.40,North,0,0.0,0.0,70,0.00,CLR,SCT,0.00,WeatherDisplay:10.37,2013-05-12 08:47:00,
2013-05-12 04:52:00,76.3,65.8,30.40,SE,135,0.0,0.0,70,0.00,CLR,SCT,0.00,WeatherDisplay:10.37,2013-05-12 08:52:00,
2013-05-12 04:57:00,76.3,65.8,30.40,East,90,0.0,0.0,70,0.00,CLR,SCT,0.00,WeatherDisplay:10.37,2013-05-12 08:57:00,
2013-05-12 05:02:00,76.1,65.6,30.40,ENE,68,0.0,0.0,70,0.00,CLR,SCT,0.00,WeatherDisplay:10.37,2013-05-12 09:02:00,
2013-05-12 05:07:00,76.1,65.6,30.40,East,90,0.0,0.0,70,0.00,CLR,SCT,0.00,WeatherDisplay:10.37,2013-05-12 09:07:00,
2013-05-12 05:12:00,75.9,65.4,30.40,SE,135,0.0,0.0,70,0.00,CLR,SCT,0.00,WeatherDisplay:10.37,2013-05-12 09:12:00,
2013-05-12 05:17:00,75.9,65.4,30.40,West,270,0.0,0.0,70,0.00,CLR,SCT,0.00,WeatherDisplay:10.37,2013-05-12 09:17:00,
2013-05-12 05:22:00,75.9,65.4,30.40,West,270,0.0,0.0,70,0.00,CLR,SCT,0.00,WeatherDisplay:10.37,2013-05-12 09:22:00,
2013-05-12 05:27:00,75.9,65.4,30.40,WSW,248,0.0,0.0,70,0.00,CLR,SCT,0.00,WeatherDisplay:10.37,2013-05-12 09:27:00,
2013-05-12 05:32:00,75.7,65.3,30.40,West,270,0.0,0.0,70,0.00,CLR,SCT,0.00,WeatherDisplay:10.37,2013-05-12 09:32:00,
2013-05-12 05:37:00,75.7,65.3,30.40,SSE,158,0.0,0.0,70,0.00,CLR,SCT,0.00,WeatherDisplay:10.37,2013-05-12 09:37:00,
2013-05-12 05:42:00,75.9,65.4,30.40,SSE,158,0.0,0.0,70,0.00,CLR,SCT,0.00,WeatherDisplay:10.37,2013-05-12 09:42:00,
2013-05-12 05:47:00,75.7,65.3,30.40,SSE,158,0.0,0.0,70,0.00,CLR,SCT,0.00,WeatherDisplay:10.37,2013-05-12 09:47:00,
2013-05-12 05:52:00,75.7,65.3,30.40,ENE,68,0.0,0.0,70,0.00,CLR,SCT,0.00,WeatherDisplay:10.37,2013-05-12 09:52:00,
2013-05-12 05:57:00,75.6,65.1,30.40,ENE,68,0.0,0.0,70,0.00,CLR,SCT,0.00,WeatherDisplay:10.37,2013-05-12 09:57:00,
2013-05-12 06:02:00,75.6,65.1,30.40,ENE,68,0.0,0.0,70,0.00,CLR,SCT,0.00,WeatherDisplay:10.37,2013-05-12 10:02:00,
2013-05-12 06:07:00,75.7,65.7,30.40,SE,135,0.0,0.0,71,0.00,CLR,SCT,0.00,WeatherDisplay:10.37,2013-05-12 10:07:00,
2013-05-12 06:12:00,75.7,65.7,30.40,SE,135,0.0,0.0,71,0.00,CLR,SCT,0.00,WeatherDisplay:10.37,2013-05-12 10:12:00,
2013-05-12 06:17:00,75.6,65.5,30.40,South,180,0.0,0.0,71,0.00,CLR,SCT,0.00,WeatherDisplay:10.37,2013-05-12 10:17:00,
2013-05-12 06:22:00,75.6,65.5,30.40,West,270,0.0,0.0,71,0.00,CLR,SCT,0.00,WeatherDisplay:10.37,2013-05-12 10:22:00,
2013-05-12 06:27:00,75.6,65.5,30.40,West,270,0.0,0.0,71,0.00,CLR,SCT,0.00,WeatherDisplay:10.37,2013-05-12 10:27:00,
2013-05-12 06:32:00,75.6,65.5,30.40,ESE,112,0.0,0.0,71,0.00,CLR,SCT,0.00,WeatherDisplay:10.37,2013-05-12 10:32:00,
2013-05-12 06:37:00,75.6,65.5,30.40,SE,135,0.0,0.0,71,0.00,CLR,SCT,0.00,WeatherDisplay:10.37,2013-05-12 10:37:00,
2013-05-12 06:42:00,75.6,65.5,30.40,SSE,158,0.0,0.0,71,0.00,CLR,SCT,0.00,WeatherDisplay:10.37,2013-05-12 10:42:00,
2013-05-12 06:47:00,75.4,65.3,30.40,SSE,158,4.6,4.6,71,0.00,CLR,SCT,0.00,WeatherDisplay:10.37,2013-05-12 10:47:00,
2013-05-12 06:52:00,75.6,65.5,30.40,South,180,2.3,2.3,71,0.00,CLR,SCT,0.00,WeatherDisplay:10.37,2013-05-12 10:52:00,
2013-05-12 06:57:00,75.9,65.8,30.40,WSW,248,2.3,2.3,71,0.00,CLR,SCT,0.00,WeatherDisplay:10.37,2013-05-12 10:57:00,
2013-05-12 07:02:00,75.9,65.8,30.40,WSW,248,1.2,1.2,71,0.00,CLR,SCT,0.00,WeatherDisplay:10.37,2013-05-12 11:02:00,
2013-05-12 07:07:00,76.1,66.0,30.40,SSE,158,2.3,2.3,71,0.00,CLR,SCT,0.00,WeatherDisplay:10.37,2013-05-12 11:07:00,
2013-05-12 07:12:00,76.3,66.2,30.40,SSW,202,0.0,0.2,71,0.00,CLR,SCT,0.00,WeatherDisplay:10.37,2013-05-12 11:12:00,
2013-05-12 07:17:00,76.3,65.8,30.40,WSW,248,0.0,0.0,70,0.00,CLR,SCT,0.00,WeatherDisplay:10.37,2013-05-12 11:17:00,
2013-05-12 07:22:00,76.5,65.9,30.40,West,270,0.0,0.0,70,0.00,CLR,SCT,0.00,WeatherDisplay:10.37,2013-05-12 11:22:00,
2013-05-12 07:27:00,76.6,66.1,30.40,South,180,0.0,0.0,70,0.00,CLR,SCT,0.00,WeatherDisplay:10.37,2013-05-12 11:27:00,
2013-05-12 07:32:00,76.8,66.3,30.40,SW,225,1.2,1.2,70,0.00,CLR,SCT,0.00,WeatherDisplay:10.37,2013-05-12 11:32:00,
2013-05-12 07:37:00,77.0,66.0,30.40,South,180,0.0,0.1,69,0.00,CLR,SCT,0.00,WeatherDisplay:10.37,2013-05-12 11:37:00,
2013-05-12 07:42:00,77.2,66.2,30.40,South,180,1.2,1.2,69,0.00,CLR,SCT,0.00,WeatherDisplay:10.37,2013-05-12 11:42:00,
2013-05-12 07:47:00,77.5,66.6,30.40,South,180,1.2,1.2,69,0.00,CLR,SCT,0.00,WeatherDisplay:10.37,2013-05-12 11:47:00,
2013-05-12 07:52:00,77.5,66.1,30.40,SE,135,2.3,2.3,68,0.00,CLR,SCT,0.00,WeatherDisplay:10.37,2013-05-12 11:52:00,
2013-05-12 07:57:00,77.7,66.3,30.40,South,180,2.3,2.3,68,0.00,CLR,SCT,0.00,WeatherDisplay:10.37,2013-05-12 11:57:00,
2013-05-12 08:02:00,77.9,66.1,30.40,South,180,2.3,2.3,67,0.00,CLR,SCT,0.00,WeatherDisplay:10.37,2013-05-12 12:02:00,
2013-05-12 08:07:00,78.3,66.4,30.40,South,180,2.3,2.3,67,0.00,CLR,SCT,0.00,WeatherDisplay:10.37,2013-05-12 12:07:00,
2013-05-12 08:12:00,78.3,66.0,30.40,SE,135,5.8,5.8,66,0.00,CLR,SCT,0.00,WeatherDisplay:10.37,2013-05-12 12:12:00,
2013-05-12 08:17:00,78.6,66.3,30.40,South,180,5.8,5.8,66,0.00,CLR,SCT,0.00,WeatherDisplay:10.37,2013-05-12 12:17:00,
2013-05-12 08:22:00,78.8,65.1,30.40,SE,135,6.1,6.1,63,0.00,CLR,SCT,0.00,WeatherDisplay:10.37,2013-05-12 12:22:00,
2013-05-12 08:27:00,79.0,64.8,30.40,SSE,158,7.4,7.4,62,0.00,CLR,SCT,0.00,WeatherDisplay:10.37,2013-05-12 12:27:00,
2013-05-12 08:33:00,79.2,65.0,30.40,South,180,8.1,8.1,62,0.00,CLR,SCT,0.00,WeatherDisplay:10.37,2013-05-12 12:33:00,
2013-05-12 08:38:00,79.5,65.4,30.40,SE,135,3.8,3.8,62,0.00,CLR,SCT,0.00,WeatherDisplay:10.37,2013-05-12 12:38:00,
2013-05-12 08:43:00,79.7,65.5,30.40,South,180,3.9,3.9,62,0.00,CLR,SCT,0.00,WeatherDisplay:10.37,2013-05-12 12:43:00,
2013-05-12 08:48:00,79.9,65.2,30.40,SE,135,4.6,4.6,61,0.00,CLR,SCT,0.00,WeatherDisplay:10.37,2013-05-12 12:48:00,
2013-05-12 08:53:00,80.2,65.1,30.40,SSE,158,5.8,5.8,60,0.00,CLR,SCT,0.00,WeatherDisplay:10.37,2013-05-12 12:53:00,
2013-05-12 08:58:00,80.6,64.9,30.40,South,180,5.8,5.8,59,0.00,CLR,SCT,0.00,WeatherDisplay:10.37,2013-05-12 12:58:00,
2013-05-12 09:03:00,80.8,65.1,30.40,ESE,112,1.2,3.2,59,0.00,CLR,SCT,0.00,WeatherDisplay:10.37,2013-05-12 13:03:00,
2013-05-12 09:08:00,81.0,64.8,30.40,SE,135,3.5,3.5,58,0.00,CLR,SCT,0.00,WeatherDisplay:10.37,2013-05-12 13:08:00,
2013-05-12 09:13:00,81.3,65.1,30.40,WSW,248,4.6,4.6,58,0.00,CLR,SCT,0.00,WeatherDisplay:10.37,2013-05-12 13:13:00,
2013-05-12 09:18:00,81.5,65.3,30.40,South,180,5.8,5.8,58,0.00,CLR,SCT,0.00,WeatherDisplay:10.37,2013-05-12 13:18:00,
2013-05-12 09:23:00,81.5,64.8,30.40,ESE,112,3.5,3.7,57,0.00,CLR,SCT,0.00,WeatherDisplay:10.37,2013-05-12 13:23:00,
2013-05-12 09:28:00,81.5,64.3,30.40,SSE,158,3.5,3.5,56,0.00,CLR,SCT,0.00,WeatherDisplay:10.37,2013-05-12 13:28:00,
2013-05-12 09:33:00,81.7,64.5,30.40,SSE,158,3.5,3.5,56,0.00,CLR,SCT,0.00,WeatherDisplay:10.37,2013-05-12 13:33:00,
2013-05-12 09:38:00,82.2,64.4,30.40,SW,225,4.6,4.6,55,0.00,CLR,SCT,0.00,WeatherDisplay:10.37,2013-05-12 13:38:00,
2013-05-12 09:43:00,82.4,63.5,30.40,SSW,202,5.8,5.8,53,0.00,CLR,SCT,0.00,WeatherDisplay:10.37,2013-05-12 13:43:00,
2013-05-12 09:48:00,82.6,63.7,30.40,South,180,4.6,4.6,53,0.00,CLR,SCT,0.00,WeatherDisplay:10.37,2013-05-12 13:48:00,
2013-05-12 09:53:00,82.4,63.5,30.40,SSE,158,9.2,9.2,53,0.00,CLR,SCT,0.00,WeatherDisplay:10.37,2013-05-12 13:53:00,
2013-05-12 09:58:00,82.2,63.4,30.40,SW,225,5.8,5.8,53,0.00,CLR,SCT,0.00,WeatherDisplay:10.37,2013-05-12 13:58:00,
2013-05-12 10:03:00,82.4,63.5,30.40,SSE,158,3.5,3.7,53,0.00,CLR,SCT,0.00,WeatherDisplay:10.37,2013-05-12 14:03:00,
2013-05-12 10:08:00,82.8,63.3,30.40,SW,225,7.2,7.2,52,0.00,CLR,SCT,0.00,WeatherDisplay:10.37,2013-05-12 14:08:00,
2013-05-12 10:13:00,82.8,63.3,30.40,SSE,158,6.9,6.9,52,0.00,CLR,SCT,0.00,WeatherDisplay:10.37,2013-05-12 14:13:00,
2013-05-12 10:18:00,82.6,62.6,30.40,South,180,5.8,5.8,51,0.00,CLR,SCT,0.00,WeatherDisplay:10.37,2013-05-12 14:18:00,
2013-05-12 10:23:00,82.8,62.2,30.40,North,0,6.9,6.9,50,0.00,CLR,SCT,0.00,WeatherDisplay:10.37,2013-05-12 14:23:00,
2013-05-12 10:28:00,83.1,62.6,30.40,SSE,158,6.9,6.9,50,0.00,CLR,SCT,0.00,WeatherDisplay:10.37,2013-05-12 14:28:00,
2013-05-12 10:33:00,83.5,62.9,30.40,SSE,158,4.6,4.6,50,0.00,CLR,SCT,0.00,WeatherDisplay:10.37,2013-05-12 14:33:00,
2013-05-12 10:38:00,83.3,62.7,30.40,SE,135,4.6,4.6,50,0.00,CLR,SCT,0.00,WeatherDisplay:10.37,2013-05-12 14:38:00,
2013-05-12 10:43:00,83.7,63.0,30.40,SE,135,8.1,8.1,50,0.00,CLR,SCT,0.00,WeatherDisplay:10.37,2013-05-12 14:43:00,
2013-05-12 10:48:00,83.8,63.8,30.40,ESE,112,5.8,5.8,51,0.00,CLR,SCT,0.00,WeatherDisplay:10.37,2013-05-12 14:48:00,
2013-05-12 10:53:00,84.4,63.7,30.40,SSE,158,4.6,4.6,50,0.00,CLR,SCT,0.00,WeatherDisplay:10.37,2013-05-12 14:53:00,
2013-05-12 10:58:00,84.0,63.4,30.40,South,180,4.6,4.6,50,0.00,CLR,SCT,0.00,WeatherDisplay:10.37,2013-05-12 14:58:00,
2013-05-12 11:03:00,84.2,63.0,30.40,South,180,4.6,4.6,49,0.00,CLR,SCT,0.00,WeatherDisplay:10.37,2013-05-12 15:03:00,
2013-05-12 11:08:00,84.4,63.1,30.40,SW,225,6.9,6.9,49,0.00,CLR,SCT,0.00,WeatherDisplay:10.37,2013-05-12 15:08:00,
2013-05-12 11:13:00,84.0,62.8,30.40,South,180,4.6,4.6,49,0.00,CLR,SCT,0.00,WeatherDisplay:10.37,2013-05-12 15:13:00,
2013-05-12 11:18:00,84.4,62.5,30.40,South,180,5.8,5.8,48,0.00,CLR,SCT,0.00,WeatherDisplay:10.37,2013-05-12 15:18:00,
2013-05-12 11:23:00,84.4,62.5,30.40,SW,225,4.7,4.7,48,0.00,CLR,SCT,0.00,WeatherDisplay:10.37,2013-05-12 15:23:00,
2013-05-12 11:28:00,84.2,63.0,30.40,SW,225,4.6,4.6,49,0.00,CLR,SCT,0.00,WeatherDisplay:10.37,2013-05-12 15:28:00,
2013-05-12 11:33:00,84.6,63.3,30.40,SSW,202,4.6,4.6,49,0.00,CLR,SCT,0.00,WeatherDisplay:10.37,2013-05-12 15:33:00,
2013-05-12 11:38:00,84.9,63.0,30.40,SW,225,8.2,8.2,48,0.00,CLR,SCT,0.00,WeatherDisplay:10.37,2013-05-12 15:38:00,
2013-05-12 11:43:00,84.6,62.7,30.40,SSW,202,5.2,5.2,48,0.00,CLR,SCT,0.00,WeatherDisplay:10.37,2013-05-12 15:43:00,
2013-05-12 11:48:00,84.4,62.5,30.40,SSW,202,6.9,6.9,48,0.00,CLR,SCT,0.00,WeatherDisplay:10.37,2013-05-12 15:48:00,
2013-05-12 11:53:00,84.4,62.5,30.40,SSE,158,4.6,4.6,48,0.00,CLR,SCT,0.00,WeatherDisplay:10.37,2013-05-12 15:53:00,
2013-05-12 11:58:00,84.9,63.0,30.40,SSE,158,3.5,3.5,48,0.00,CLR,SCT,0.00,WeatherDisplay:10.37,2013-05-12 15:58:00,
2013-05-12 12:03:00,85.3,63.4,30.40,SW,225,4.6,4.6,48,0.00,CLR,SCT,0.00,WeatherDisplay:10.37,2013-05-12 16:03:00,
2013-05-12 12:08:00,85.6,63.7,30.40,South,180,4.6,4.6,48,0.00,CLR,SCT,0.00,WeatherDisplay:10.37,2013-05-12 16:08:00,
2013-05-12 12:13:00,85.5,62.9,30.40,South,180,3.5,3.5,47,0.00,CLR,SCT,0.00,WeatherDisplay:10.37,2013-05-12 16:13:00,
2013-05-12 12:18:00,86.2,63.0,30.40,SE,135,8.1,8.1,46,0.00,CLR,SCT,0.00,WeatherDisplay:10.37,2013-05-12 16:18:00,
2013-05-12 12:23:00,86.2,62.3,30.40,SE,135,6.9,6.9,45,0.00,CLR,SCT,0.00,WeatherDisplay:10.37,2013-05-12 16:23:00,
2013-05-12 12:28:00,85.6,62.5,30.40,SE,135,6.9,6.9,46,0.00,CLR,SCT,0.00,WeatherDisplay:10.37,2013-05-12 16:28:00,
2013-05-12 12:33:00,85.8,62.6,30.40,SSE,158,4.6,4.6,46,0.00,CLR,SCT,0.00,WeatherDisplay:10.37,2013-05-12 16:33:00,
2013-05-12 12:38:00,85.8,63.3,30.40,South,180,5.8,5.8,47,0.00,CLR,SCT,0.00,WeatherDisplay:10.37,2013-05-12 16:38:00,
2013-05-12 12:43:00,85.6,63.1,30.40,SSE,158,5.8,5.8,47,0.00,CLR,SCT,0.00,WeatherDisplay:10.37,2013-05-12 16:43:00,
2013-05-12 12:48:00,85.5,62.9,30.40,SE,135,4.6,4.6,47,0.00,CLR,SCT,0.00,WeatherDisplay:10.37,2013-05-12 16:48:00,
2013-05-12 12:53:00,85.5,63.5,30.40,SSW,202,4.6,4.6,48,0.00,CLR,SCT,0.00,WeatherDisplay:10.37,2013-05-12 16:53:00,
2013-05-12 12:58:00,85.8,63.9,30.40,SE,135,7.2,7.2,48,0.00,CLR,SCT,0.00,WeatherDisplay:10.37,2013-05-12 16:58:00,
2013-05-12 13:03:00,85.8,63.9,30.40,SSE,158,6.9,6.9,48,0.00,CLR,SCT,0.00,WeatherDisplay:10.37,2013-05-12 17:03:00,
2013-05-12 13:08:00,86.5,63.9,30.40,SE,135,9.2,9.2,47,0.00,CLR,SCT,0.00,WeatherDisplay:10.37,2013-05-12 17:08:00,
2013-05-12 13:13:00,86.7,63.5,30.40,SSE,158,8.1,8.1,46,0.00,CLR,SCT,0.00,WeatherDisplay:10.37,2013-05-12 17:13:00,
2013-05-12 13:18:00,87.4,64.1,30.40,SE,135,6.9,6.9,46,0.00,CLR,SCT,0.00,WeatherDisplay:10.37,2013-05-12 17:18:00,
2013-05-12 13:23:00,87.6,63.7,30.40,SSE,158,6.9,6.9,45,0.00,CLR,SCT,0.00,WeatherDisplay:10.37,2013-05-12 17:23:00,
2013-05-12 13:28:00,87.8,63.8,30.40,SE,135,6.9,6.9,45,0.00,CLR,SCT,0.00,WeatherDisplay:10.37,2013-05-12 17:28:00,
2013-05-12 13:33:00,87.8,63.8,30.40,SE,135,6.9,6.9,45,0.00,CLR,SCT,0.00,WeatherDisplay:10.37,2013-05-12 17:33:00,
2013-05-12 13:38:00,88.0,64.0,30.40,SW,225,6.9,6.9,45,0.00,CLR,SCT,0.00,WeatherDisplay:10.37,2013-05-12 17:38:00,
2013-05-12 13:43:00,87.4,62.8,30.40,SSE,158,4.6,4.9,44,0.00,CLR,SCT,0.00,WeatherDisplay:10.37,2013-05-12 17:43:00,
2013-05-12 13:48:00,87.6,63.0,30.40,SSE,158,9.2,9.2,44,0.00,CLR,SCT,0.00,WeatherDisplay:10.37,2013-05-12 17:48:00,
2013-05-12 13:53:00,86.9,62.4,30.40,SSE,158,10.4,10.4,44,0.00,CLR,SCT,0.00,WeatherDisplay:10.37,2013-05-12 17:53:00,
2013-05-12 13:58:00,86.4,62.5,30.40,SE,135,9.2,9.2,45,0.00,CLR,SCT,0.00,WeatherDisplay:10.37,2013-05-12 17:58:00,
2013-05-12 14:03:00,86.5,62.7,30.40,SE,135,10.9,10.9,45,0.00,CLR,SCT,0.00,WeatherDisplay:10.37,2013-05-12 18:03:00,
2013-05-12 14:08:00,87.1,63.2,30.40,East,90,7.0,7.0,45,0.00,CLR,SCT,0.00,WeatherDisplay:10.37,2013-05-12 18:08:00,
2013-05-12 14:13:00,87.3,63.3,30.40,SSE,158,6.9,6.9,45,0.00,CLR,SCT,0.00,WeatherDisplay:10.37,2013-05-12 18:13:00,
2013-05-12 14:19:00,87.6,63.0,30.40,ESE,112,6.9,6.9,44,0.00,CLR,SCT,0.00,WeatherDisplay:10.37,2013-05-12 18:19:00,
2013-05-12 14:24:00,87.8,62.5,30.40,SE,135,7.5,7.5,43,0.00,CLR,SCT,0.00,WeatherDisplay:10.37,2013-05-12 18:24:00,
2013-05-12 14:29:00,88.2,63.5,30.40,South,180,6.9,6.9,44,0.00,CLR,SCT,0.00,WeatherDisplay:10.37,2013-05-12 18:29:00,
2013-05-12 14:34:00,88.0,62.7,30.40,South,180,9.2,9.2,43,0.00,CLR,SCT,0.00,WeatherDisplay:10.37,2013-05-12 18:34:00,
2013-05-12 14:39:00,88.5,63.2,30.40,SE,135,6.9,6.9,43,0.00,CLR,SCT,0.00,WeatherDisplay:10.37,2013-05-12 18:39:00,
2013-05-12 14:44:00,88.9,62.8,30.40,ESE,112,8.1,8.1,42,0.00,CLR,SCT,0.00,WeatherDisplay:10.37,2013-05-12 18:44:00,
2013-05-12 14:49:00,88.9,62.8,30.40,ESE,112,8.1,8.1,42,0.00,CLR,SCT,0.00,WeatherDisplay:10.37,2013-05-12 18:49:00,
2013-05-12 14:54:00,89.2,62.5,30.40,SSE,158,9.2,9.2,41,0.00,CLR,SCT,0.00,WeatherDisplay:10.37,2013-05-12 18:54:00,
2013-05-12 14:59:00,89.2,62.5,30.40,SE,135,11.5,11.5,41,0.00,CLR,SCT,0.00,WeatherDisplay:10.37,2013-05-12 18:59:00,
2013-05-12 15:04:00,89.2,62.5,30.40,SE,135,11.5,11.5,41,0.00,CLR,SCT,0.00,WeatherDisplay:10.37,2013-05-12 19:04:00,
2013-05-12 15:09:00,89.2,62.5,30.40,WSW,248,10.4,10.4,41,0.00,CLR,SCT,0.00,WeatherDisplay:10.37,2013-05-12 19:09:00,
2013-05-12 15:14:00,88.9,63.5,30.40,ESE,112,8.1,8.1,43,0.00,CLR,SCT,0.00,WeatherDisplay:10.37,2013-05-12 19:14:00,
2013-05-12 15:19:00,89.1,63.0,30.40,SSE,158,5.8,5.8,42,0.00,CLR,SCT,0.00,WeatherDisplay:10.37,2013-05-12 19:19:00,
2013-05-12 15:24:00,88.9,62.1,30.40,ESE,112,11.5,11.5,41,0.00,CLR,SCT,0.00,WeatherDisplay:10.37,2013-05-12 19:24:00,
2013-05-12 15:29:00,89.2,63.1,30.40,South,180,6.9,6.9,42,0.00,CLR,SCT,0.00,WeatherDisplay:10.37,2013-05-12 19:29:00,
2013-05-12 15:34:00,88.3,61.7,30.40,East,90,9.2,9.2,41,0.00,CLR,SCT,0.00,WeatherDisplay:10.37,2013-05-12 19:34:00,
2013-05-12 15:39:00,87.8,61.9,30.40,ENE,68,10.4,10.4,42,0.00,CLR,SCT,0.00,WeatherDisplay:10.37,2013-05-12 19:39:00,
2013-05-12 15:44:00,87.6,61.7,30.40,SSE,158,8.6,8.6,42,0.00,CLR,SCT,0.00,WeatherDisplay:10.37,2013-05-12 19:44:00,
2013-05-12 15:49:00,87.1,61.9,30.40,SSE,158,6.9,6.9,43,0.00,CLR,SCT,0.00,WeatherDisplay:10.37,2013-05-12 19:49:00,
2013-05-12 15:54:00,86.5,62.0,30.40,SSE,158,5.8,5.8,44,0.00,CLR,SCT,0.00,WeatherDisplay:10.37,2013-05-12 19:54:00,
2013-05-12 15:59:00,86.0,61.5,30.40,East,90,4.6,4.8,44,0.00,CLR,SCT,0.00,WeatherDisplay:10.37,2013-05-12 19:59:00,
2013-05-12 16:04:00,85.5,61.7,30.40,SSE,158,6.9,6.9,45,0.00,CLR,SCT,0.00,WeatherDisplay:10.37,2013-05-12 20:04:00,
2013-05-12 16:09:00,85.3,62.2,30.40,SE,135,8.1,8.1,46,0.00,CLR,SCT,0.00,WeatherDisplay:10.37,2013-05-12 20:09:00,
2013-05-12 16:14:00,84.9,61.8,30.40,South,180,5.8,5.8,46,0.00,CLR,SCT,0.00,WeatherDisplay:10.37,2013-05-12 20:14:00,
2013-05-12 16:19:00,84.7,62.3,30.40,SSE,158,5.8,5.8,47,0.00,CLR,SCT,0.00,WeatherDisplay:10.37,2013-05-12 20:19:00,
2013-05-12 16:24:00,84.4,61.9,30.40,ESE,112,8.1,8.1,47,0.00,CLR,SCT,0.00,WeatherDisplay:10.37,2013-05-12 20:24:00,
2013-05-12 16:29:00,84.4,61.9,30.40,SE,135,8.1,8.1,47,0.00,CLR,SCT,0.00,WeatherDisplay:10.37,2013-05-12 20:29:00,
2013-05-12 16:34:00,84.2,62.4,30.40,South,180,6.9,6.9,48,0.00,CLR,SCT,0.00,WeatherDisplay:10.37,2013-05-12 20:34:00,
2013-05-12 16:39:00,84.0,61.6,30.40,South,180,10.4,10.4,47,0.00,CLR,SCT,0.00,WeatherDisplay:10.37,2013-05-12 20:39:00,
2013-05-12 16:44:00,83.8,61.5,30.40,SE,135,9.2,9.2,47,0.00,CLR,SCT,0.00,WeatherDisplay:10.37,2013-05-12 20:44:00,
2013-05-12 16:49:00,83.7,61.9,30.40,SE,135,6.0,6.0,48,0.00,CLR,SCT,0.00,WeatherDisplay:10.37,2013-05-12 20:49:00,
2013-05-12 16:54:00,83.7,61.9,30.40,SSE,158,4.9,4.9,48,0.00,CLR,SCT,0.00,WeatherDisplay:10.37,2013-05-12 20:54:00,
2013-05-12 16:59:00,83.3,61.6,30.40,South,180,4.6,4.6,48,0.00,CLR,SCT,0.00,WeatherDisplay:10.37,2013-05-12 20:59:00,
2013-05-12 17:04:00,83.3,61.6,30.40,South,180,3.5,3.9,48,0.00,CLR,SCT,0.00,WeatherDisplay:10.37,2013-05-12 21:04:00,
2013-05-12 17:09:00,83.1,62.0,30.40,SE,135,4.6,4.6,49,0.00,CLR,SCT,0.00,WeatherDisplay:10.37,2013-05-12 21:09:00,
2013-05-12 17:14:00,83.1,62.0,30.40,South,180,4.6,4.6,49,0.00,CLR,SCT,0.00,WeatherDisplay:10.37,2013-05-12 21:14:00,
2013-05-12 17:19:00,83.1,62.0,30.40,SW,225,5.8,5.8,49,0.00,CLR,SCT,0.00,WeatherDisplay:10.37,2013-05-12 21:19:00,
2013-05-12 17:24:00,83.1,62.0,30.40,South,180,3.5,3.5,49,0.00,CLR,SCT,0.00,WeatherDisplay:10.37,2013-05-12 21:24:00,
2013-05-12 17:29:00,83.1,62.0,30.40,SSW,202,6.9,6.9,49,0.00,CLR,SCT,0.00,WeatherDisplay:10.37,2013-05-12 21:29:00,
2013-05-12 17:34:00,82.9,61.8,30.40,SSE,158,6.9,6.9,49,0.00,CLR,SCT,0.00,WeatherDisplay:10.37,2013-05-12 21:34:00,
2013-05-12 17:39:00,82.9,61.8,30.40,SSE,158,5.9,5.9,49,0.00,CLR,SCT,0.00,WeatherDisplay:10.37,2013-05-12 21:39:00,
2013-05-12 17:44:00,82.9,61.2,30.40,SSE,158,8.5,8.5,48,0.00,CLR,SCT,0.00,WeatherDisplay:10.37,2013-05-12 21:44:00,
2013-05-12 17:49:00,82.9,61.8,30.40,South,180,7.6,7.6,49,0.00,CLR,SCT,0.00,WeatherDisplay:10.37,2013-05-12 21:49:00,
2013-05-12 17:54:00,82.6,61.5,30.40,SW,225,5.8,5.8,49,0.00,CLR,SCT,0.00,WeatherDisplay:10.37,2013-05-12 21:54:00,
2013-05-12 17:59:00,82.6,61.5,30.40,SSW,202,2.3,3.7,49,0.00,CLR,SCT,0.00,WeatherDisplay:10.37,2013-05-12 21:59:00,
2013-05-12 18:04:00,81.9,62.0,30.40,NW,315,5.8,5.8,51,0.00,CLR,SCT,0.00,WeatherDisplay:10.37,2013-05-12 22:04:00,
2013-05-12 18:09:00,81.5,62.2,30.40,SW,225,6.9,6.9,52,0.00,CLR,SCT,0.00,WeatherDisplay:10.37,2013-05-12 22:09:00,
2013-05-12 18:14:00,80.8,62.1,30.40,WSW,248,8.1,8.1,53,0.00,CLR,SCT,0.00,WeatherDisplay:10.37,2013-05-12 22:14:00,
2013-05-12 18:19:00,80.6,62.4,30.40,WNW,292,4.6,4.6,54,0.00,CLR,SCT,0.00,WeatherDisplay:10.37,2013-05-12 22:19:00,
2013-05-12 18:24:00,80.4,62.2,30.40,NW,315,8.1,8.1,54,0.00,CLR,SCT,0.00,WeatherDisplay:10.37,2013-05-12 22:24:00,
2013-05-12 18:29:00,80.1,61.9,30.40,SW,225,9.2,9.2,54,0.00,CLR,SCT,0.00,WeatherDisplay:10.37,2013-05-12 22:29:00,
2013-05-12 18:34:00,79.9,61.7,30.40,SW,225,6.9,6.9,54,0.00,CLR,SCT,0.00,WeatherDisplay:10.37,2013-05-12 22:34:00,
2013-05-12 18:39:00,79.9,61.2,30.40,SW,225,4.6,4.6,53,0.00,CLR,SCT,0.00,WeatherDisplay:10.37,2013-05-12 22:39:00,
2013-05-12 18:44:00,79.9,61.2,30.40,SW,225,4.6,4.6,53,0.00,CLR,SCT,0.00,WeatherDisplay:10.37,2013-05-12 22:44:00,
2013-05-12 18:49:00,79.9,61.7,30.40,WSW,248,2.6,2.6,54,0.00,CLR,SCT,0.00,WeatherDisplay:10.37,2013-05-12 22:49:00,
2013-05-12 18:54:00,79.9,61.7,30.40,WSW,248,5.8,5.8,54,0.00,CLR,SCT,0.00,WeatherDisplay:10.37,2013-05-12 22:54:00,
2013-05-12 18:59:00,79.9,62.3,30.40,SSW,202,4.6,4.6,55,0.00,CLR,SCT,0.00,WeatherDisplay:10.37,2013-05-12 22:59:00,
2013-05-12 19:04:00,79.9,62.8,30.40,South,180,4.6,4.6,56,0.00,CLR,SCT,0.00,WeatherDisplay:10.37,2013-05-12 23:04:00,
2013-05-12 19:09:00,79.9,62.3,30.40,WSW,248,4.6,4.6,55,0.00,CLR,SCT,0.00,WeatherDisplay:10.37,2013-05-12 23:09:00,
2013-05-12 19:14:00,79.9,62.3,30.40,South,180,6.9,6.9,55,0.00,CLR,SCT,0.00,WeatherDisplay:10.37,2013-05-12 23:14:00,
2013-05-12 19:19:00,80.1,62.9,30.40,WSW,248,3.5,3.5,56,0.00,CLR,SCT,0.00,WeatherDisplay:10.37,2013-05-12 23:19:00,
2013-05-12 19:24:00,80.1,62.4,30.40,SSW,202,2.3,2.6,55,0.00,CLR,SCT,0.00,WeatherDisplay:10.37,2013-05-12 23:24:00,
2013-05-12 19:29:00,79.9,62.3,30.40,WSW,248,1.0,5.0,55,0.00,CLR,SCT,0.00,WeatherDisplay:10.37,2013-05-12 23:29:00,
2013-05-12 19:34:00,79.9,62.3,30.40,NW,315,1.2,1.2,55,0.00,CLR,SCT,0.00,WeatherDisplay:10.37,2013-05-12 23:34:00,
2013-05-12 19:39:00,79.9,61.7,30.40,NW,315,0.0,0.5,54,0.00,CLR,SCT,0.00,WeatherDisplay:10.37,2013-05-12 23:39:00,
2013-05-12 19:44:00,79.9,61.2,30.40,East,90,1.3,1.3,53,0.00,CLR,SCT,0.00,WeatherDisplay:10.37,2013-05-12 23:44:00,
2013-05-12 19:49:00,80.1,61.4,30.40,NNW,338,3.5,3.5,53,0.00,CLR,SCT,0.00,WeatherDisplay:10.37,2013-05-12 23:49:00,
2013-05-12 19:54:00,79.7,59.4,30.40,NNW,338,9.2,9.2,50,0.00,CLR,SCT,0.00,WeatherDisplay:10.37,2013-05-12 23:54:00,
2013-05-12 19:59:00,79.2,57.2,30.40,NNE,22,5.8,5.8,47,0.00,CLR,SCT,0.00,WeatherDisplay:10.37,2013-05-12 23:59:00,
2013-05-12 20:04:00,78.4,57.7,30.40,North,0,8.1,8.1,49,0.00,CLR,SCT,0.00,WeatherDisplay:10.37,2013-05-13 00:04:00,
2013-05-12 20:10:00,77.0,60.1,30.40,NNW,338,4.6,5.1,56,0.00,CLR,SCT,0.00,WeatherDisplay:10.37,2013-05-13 00:10:00,
2013-05-12 20:15:00,76.5,61.1,30.40,NW,315,2.3,3.7,59,0.00,CLR,SCT,0.00,WeatherDisplay:10.37,2013-05-13 00:15:00,
2013-05-12 20:20:00,76.3,61.8,30.40,West,270,1.2,2.1,61,0.14,RA,SCT,0.14,WeatherDisplay:10.37,2013-05-13 00:20:00,
2013-05-12 20:25:00,76.6,62.6,30.40,SE,135,2.3,2.3,62,0.28,RA,SCT,0.28,WeatherDisplay:10.37,2013-05-13 00:25:00,
2013-05-12 20:30:00,77.0,63.0,30.40,SSE,158,1.2,1.3,62,0.28,RA,SCT,0.28,WeatherDisplay:10.37,2013-05-13 00:30:00,
2013-05-12 20:35:00,76.8,63.3,30.40,South,180,0.0,1.3,63,0.31,RA,SCT,0.31,WeatherDisplay:10.37,2013-05-13 00:35:00,
2013-05-12 20:40:00,76.6,63.5,30.40,ESE,112,1.2,1.2,64,0.31,RA,SCT,0.31,WeatherDisplay:10.37,2013-05-13 00:40:00,
2013-05-12 20:45:00,76.6,64.0,30.40,ESE,112,1.2,1.2,65,0.31,CLR,SCT,0.31,WeatherDisplay:10.37,2013-05-13 00:45:00,
2013-05-12 20:50:00,76.6,64.0,30.40,East,90,0.0,0.6,65,0.31,CLR,SCT,0.31,WeatherDisplay:10.37,2013-05-13 00:50:00,
2013-05-12 20:55:00,76.8,64.6,30.40,East,90,1.2,1.2,66,0.31,CLR,SCT,0.31,WeatherDisplay:10.37,2013-05-13 00:55:00,
2013-05-12 21:00:00,77.0,64.3,30.40,ESE,112,1.2,1.2,65,0.31,CLR,SCT,0.31,WeatherDisplay:10.37,2013-05-13 01:00:00,
2013-05-12 21:05:00,77.2,64.5,30.40,ESE,112,1.2,1.2,65,0.31,CLR,SCT,0.31,WeatherDisplay:10.37,2013-05-13 01:05:00,
2013-05-12 21:10:00,77.4,65.1,30.40,East,90,3.1,3.1,66,0.31,CLR,SCT,0.31,WeatherDisplay:10.37,2013-05-13 01:10:00,
2013-05-12 21:15:00,77.0,64.8,30.40,ESE,112,0.0,0.9,66,0.31,CLR,SCT,0.31,WeatherDisplay:10.37,2013-05-13 01:15:00,
2013-05-12 21:20:00,77.0,64.8,30.40,ESE,112,0.0,0.5,66,0.17,CLR,SCT,0.31,WeatherDisplay:10.37,2013-05-13 01:20:00,
2013-05-12 21:25:00,77.0,64.8,30.40,South,180,0.0,0.2,66,0.03,CLR,SCT,0.31,WeatherDisplay:10.37,2013-05-13 01:25:00,
2013-05-12 21:30:00,77.0,64.8,30.40,South,180,0.0,0.2,66,0.03,CLR,SCT,0.31,WeatherDisplay:10.37,2013-05-13 01:30:00,
2013-05-12 21:35:00,76.6,64.4,30.40,South,180,2.3,2.3,66,0.00,CLR,SCT,0.31,WeatherDisplay:10.37,2013-05-13 01:35:00,
2013-05-12 21:40:00,76.5,64.3,30.40,NE,45,1.2,1.2,66,0.00,CLR,SCT,0.31,WeatherDisplay:10.37,2013-05-13 01:40:00,
2013-05-12 21:45:00,76.3,64.5,30.40,South,180,1.7,1.7,67,0.00,CLR,SCT,0.31,WeatherDisplay:10.37,2013-05-13 01:45:00,
2013-05-12 21:50:00,76.3,64.5,30.40,NW,315,0.0,0.3,67,0.00,CLR,SCT,0.31,WeatherDisplay:10.37,2013-05-13 01:50:00,
2013-05-12 21:55:00,76.3,64.5,30.40,South,180,0.0,0.2,67,0.00,CLR,SCT,0.31,WeatherDisplay:10.37,2013-05-13 01:55:00,
2013-05-12 22:00:00,76.5,64.7,30.40,WSW,248,0.0,0.0,67,0.00,CLR,SCT,0.31,WeatherDisplay:10.37,2013-05-13 02:00:00,
2013-05-12 22:05:00,76.5,64.7,30.40,South,180,0.0,0.0,67,0.00,CLR,SCT,0.31,WeatherDisplay:10.37,2013-05-13 02:05:00,
2013-05-12 22:10:00,76.3,64.5,30.40,SSE,158,1.2,1.2,67,0.00,CLR,SCT,0.31,WeatherDisplay:10.37,2013-05-13 02:10:00,
2013-05-12 22:15:00,76.3,64.9,30.40,ESE,112,0.0,0.2,68,0.00,CLR,SCT,0.31,WeatherDisplay:10.37,2013-05-13 02:15:00,
2013-05-12 22:20:00,76.3,64.9,30.40,ESE,112,0.0,0.0,68,0.00,CLR,SCT,0.31,WeatherDisplay:10.37,2013-05-13 02:20:00,
2013-05-12 22:25:00,76.3,64.9,30.40,ENE,68,0.0,0.0,68,0.00,CLR,SCT,0.31,WeatherDisplay:10.37,2013-05-13 02:25:00,
2013-05-12 22:30:00,76.3,64.9,30.40,East,90,0.0,0.0,68,0.00,CLR,SCT,0.31,WeatherDisplay:10.37,2013-05-13 02:30:00,
2013-05-12 22:35:00,76.1,64.8,30.40,West,270,0.0,0.0,68,0.00,CLR,SCT,0.31,WeatherDisplay:10.37,2013-05-13 02:35:00,
2013-05-12 22:40:00,76.1,65.2,30.40,SW,225,0.0,0.0,69,0.00,CLR,SCT,0.31,WeatherDisplay:10.37,2013-05-13 02:40:00,
2013-05-12 22:45:00,76.1,65.2,30.40,SW,225,0.0,0.0,69,0.00,CLR,SCT,0.31,WeatherDisplay:10.37,2013-05-13 02:45:00,
2013-05-12 22:50:00,76.1,65.2,30.40,South,180,0.0,0.0,69,0.00,CLR,SCT,0.31,WeatherDisplay:10.37,2013-05-13 02:50:00,
2013-05-12 22:55:00,76.1,65.2,30.40,SSE,158,0.0,0.0,69,0.00,CLR,SCT,0.31,WeatherDisplay:10.37,2013-05-13 02:55:00,
2013-05-12 23:00:00,76.1,65.2,30.40,SSE,158,0.0,0.0,69,0.00,CLR,SCT,0.31,WeatherDisplay:10.37,2013-05-13 03:00:00,
2013-05-12 23:05:00,76.1,65.2,30.40,SSE,158,0.0,0.0,69,0.00,CLR,SCT,0.31,WeatherDisplay:10.37,2013-05-13 03:05:00,
2013-05-12 23:10:00,76.1,65.2,30.40,SE,135,0.0,0.0,69,0.00,CLR,SCT,0.31,WeatherDisplay:10.37,2013-05-13 03:10:00,
2013-05-12 23:15:00,75.9,65.4,30.40,SE,135,0.0,0.0,70,0.00,CLR,SCT,0.31,WeatherDisplay:10.37,2013-05-13 03:15:00,
2013-05-12 23:20:00,75.9,65.4,30.40,SE,135,0.0,0.0,70,0.00,CLR,SCT,0.31,WeatherDisplay:10.37,2013-05-13 03:20:00,
2013-05-12 23:25:00,75.9,65.4,30.40,SE,135,0.0,0.0,70,0.00,CLR,SCT,0.31,WeatherDisplay:10.37,2013-05-13 03:25:00,
2013-05-12 23:30:00,76.1,65.6,30.40,South,180,0.0,0.0,70,0.00,CLR,SCT,0.31,WeatherDisplay:10.37,2013-05-13 03:30:00,
2013-05-12 23:35:00,76.1,65.6,30.40,SSW,202,0.0,0.0,70,0.00,CLR,SCT,0.31,WeatherDisplay:10.37,2013-05-13 03:35:00,
2013-05-12 23:40:00,76.1,65.6,30.40,SSW,202,0.0,0.0,70,0.00,CLR,SCT,0.31,WeatherDisplay:10.37,2013-05-13 03:40:00,
2013-05-12 23:45:00,76.1,65.6,30.40,SW,225,0.0,0.0,70,0.00,CLR,SCT,0.31,WeatherDisplay:10.37,2013-05-13 03:45:00,
2013-05-12 23:50:00,75.9,65.8,30.40,SW,225,0.0,0.0,71,0.00,CLR,SCT,0.31,WeatherDisplay:10.37,2013-05-13 03:50:00,
2013-05-12 23:55:00,76.1,66.0,30.40,South,180,0.0,0.0,71,0.00,CLR,SCT,0.31,WeatherDisplay:10.37,2013-05-13 03:55:00,